DELTA 1 DEB, 10754

Orbit data source: Space-Track

DELTA 1 DEB, 10754 is space debris in SSO originally from a launch on Thu, 29 Jul 1976 UTC launched from the Air Force Western Test Range (AFWTR). Debris objects in space refer to the collection of defunct objects orbiting the Earth. Examples of debris include non-operational satellites, rocket bodies, and fragments generated from explosions, collisions, or faulty payload assembly.

Loading next visibility...
Identifier
10754, 1976-077BB
Orbit
SSO
Country
Flag of USUS
Related business
Manufacturer
Unknown
Mission
Spacecraft
Bus & Motor
Unknown
Mass
Unknown
Launch date (UTC)
1976-07-29 (50 years ago)
Launch vehicle
Unknown
Launch site
Air Force Western Test Range (AFWTR)
Object type
Payload
Rocket body
Debris
Shape & HBR
Unknown shape, 0.2 m
Radar Cross Section
Small (<0.1 m²)

Expand to show TLE details & history
Last TLE update: 11 hours ago

TLE from 11 hours ago
0 DELTA 1 DEB
1 10754U 76077BB  26118.91308603 -.00000035  00000-0  10558-3 0  9993
2 10754 102.7128 107.2178 0122960 172.3550 250.4821 12.21684586219422
Epoch: 2026-04-28T21:54Z
TLE epoch observation values (Epoch: 2026-04-28T21:54:50.632Z)
Latitude
59.11752°
Longitude
-100.42291°
Altitude
1,628.773 km
Speed
7.047 km/s
True Right ascension
05h 40m 40s
True Declination
58° 58' 56"
Sunlit
Object was in daylight at epoch
Visualization orbit readout
Latitude
Unknown
Longitude
Unknown
Altitude
Unknown
Speed
Unknown
Apparent Right ascension
Unknown
Apparent Declination
Unknown
Sunlit
N/A
Visualization observer readout
Local Sidereal Time
16:42:11
Azimuth
Unknown
Elevation
Unknown
Doppler factor
Unknown
Orbital elements
Apogee altitude
1,680.742 km
Perigee altitude
1,484.966 km
Semi-major axis
7,960.991 km
Eccentricity
0.0123
Inclination
102.7128°
RAAN
107.2178°
Arg. of periapsis
172.355°
True anomaly
249.16095°
Mean anomaly
250.4821°
Eccentric anomaly
249.82083°
Mean motion
3.05557 °/min
Orbital period
117.82 mins
BSTAR
0.00010558
Loading maneuver chart data...
Computing Atmospheric mass density...
Loading historical data...
Loading historical data...
Loading historical data...
Loading historical data...
Loading historical data...
Loading historical data...
Loading historical data...

Documentation

Showing up to 5 results
|